N7DTY Weather Reports


time (UTC)temp
C
wind
direction
speed
KPH
gust
KPH
rain 1hr
cm
rain 24hr
cm
rain mn
cm
humidity
%
barometer
mb
20260505031541 17 291 0.0 4.8 0.00 0.00 0.00 72 1008.1
20260505030043 18 180 1.6 3.2 0.00 0.00 0.00 65 1008.0
20260505024603 18 235 3.2 9.7 0.00 0.00 0.00 61 1008.1
20260505023041 19 182 3.2 11.3 0.00 0.00 0.00 55 1008.1
20260505021549 19 173 3.2 14.5 0.00 0.00 0.00 54 1008.3
20260505020044 19 145 3.2 11.3 0.00 0.00 0.00 55 1008.3
20260505014535 19 146 3.2 12.9 0.00 0.00 0.00 57 1008.4
20260505013033 20 108 4.8 14.5 0.00 0.00 0.00 55 1008.5
20260505011547 19 269 0.0 4.8 0.00 0.00 0.00 59 1008.6
20260505010031 20 205 4.8 14.5 0.00 0.00 0.00 55 1008.7
20260505004541 20 188 4.8 12.9 0.00 0.00 0.00 58 1008.6
20260505003030 20 202 1.6 12.9 0.00 0.00 0.00 59 1008.6
20260505001532 21 232 4.8 14.5 0.00 0.00 0.00 54 1008.7
20260505000028 21 218 3.2 11.3 0.00 0.00 0.00 55 1008.9
20260504234528 21 173 1.6 11.3 0.00 0.00 0.00 53 1008.9
20260504233028 22 200 4.8 12.9 0.00 0.00 0.00 48 1009.0
20260504231527 22 178 4.8 12.9 0.00 0.00 0.00 48 1009.1
20260504230027 22 182 4.8 9.7 0.00 0.00 0.00 48 1009.4
20260504224525 22 167 3.2 9.7 0.00 0.00 0.00 48 1009.3
20260504223031 22 169 3.2 11.3 0.00 0.00 0.00 53 1009.4
20260504221525 22 209 3.2 9.7 0.00 0.00 0.00 53 1009.6
20260504220023 22 217 3.2 11.3 0.00 0.00 0.00 54 1009.7
20260504214519 21 197 3.2 9.7 0.00 0.00 0.00 58 1009.6
20260504213021 21 179 3.2 8.0 0.00 0.00 0.00 58 1009.6
20260504211519 21 221 4.8 11.3 0.00 0.00 0.00 58 1009.8
20260504210017 21 158 1.6 8.0 0.00 0.00 0.00 57 1009.9
20260504204518 21 148 1.6 11.3 0.00 0.00 0.00 57 1010.0
20260504203017 20 194 3.2 12.9 0.00 0.00 0.00 59 1010.1
20260504201515 21 193 4.8 12.9 0.00 0.00 0.00 60 1010.1
20260504200014 21 172 4.8 9.7 0.00 0.00 0.00 62 1010.3
20260504194509 19 169 3.2 11.3 0.00 0.00 0.00 62 1010.3
20260504193007 19 168 6.4 11.3 0.00 0.00 0.00 60 1010.3
20260504191512 20 169 1.6 9.7 0.00 0.00 0.00 65 1010.2
20260504190006 20 223 0.0 4.8 0.00 0.00 0.00 67 1010.2
20260504184503 20 199 1.6 11.3 0.00 0.00 0.00 68 1010.1
20260504183003 20 165 1.6 6.4 0.00 0.00 0.00 67 1010.2
20260504181609 18 187 1.6 8.0 0.00 0.00 0.00 70 1010.3
20260504180056 18 238 1.6 8.0 0.00 0.00 0.00 71 1010.2
20260504174552 17 192 1.6 9.7 0.00 0.00 0.00 71 1010.1
20260504173055 17 238 1.6 4.8 0.00 0.00 0.00 71 1010.2
20260504171549 17 178 1.6 4.8 0.00 0.00 0.00 70 1010.2
20260504100105 11 197 0.0 0.0 0.00 0.00 0.00 81 1009.4
20260504081551 12 197 0.0 0.0 0.00 0.00 0.00 81 1009.2
20260504044532 13 197 0.0 1.6 0.00 0.00 0.00 77 1009.3
20260504043039 14 197 0.0 0.0 0.00 0.00 0.00 76 1009.3
20260504041531 14 197 0.0 0.0 0.00 0.00 0.00 75 1009.4
20260504040031 15 197 0.0 1.6 0.00 0.00 0.00 75 1009.3
20260504034530 15 197 0.0 0.0 0.00 0.00 0.00 72 1009.2
20260504033030 15 197 0.0 0.0 0.00 0.00 0.00 70 1009.3